Regional Weather Roundup
Issued by NWS

Home | Current Version | Previous Version | Text Only | Print | Product List | Glossary On
Versions: 1 2 3 4 5 6 7 8 9 10 11 12 13 14 15 16 17 18 19 20 21 22 23 24 25 26 27 28 29 30 31 32 33 34 35 36 37 38 39 40 41 42 43 44 45 46 47 48 49 50
000
ASUS44 KOUN 240210
RWROK

WEATHER ROUNDUP FOR OKLAHOMA
NATIONAL WEATHER SERVICE NORMAN OK
800 PM CST THU NOV 23 2017

NOTE: "FAIR" INDICATES FEW OR NO CLOUDS BELOW 12,000 FEET WITH NO
      SIGNIFICANT WEATHER AND/OR OBSTRUCTIONS TO VISIBILITY.

OKZ001>007-009>012-014-015-017-240300-
NORTHWEST OKLAHOMA AND THE PANHANDLE

CITY           SKY/WX    TMP DP  RH WIND       PRES   REMARKS
GAGE           CLOUDY    53  37  54 W5        29.97F
GUYMON         CLOUDY    53  39  59 SW8       29.98F
ENID/WOODRING  PTCLDY    50  37  62 S6        29.96S
$$

OKZ016-021>023-033>039-044-045-240300-
SOUTHWEST OKLAHOMA

CITY           SKY/WX    TMP DP  RH WIND       PRES   REMARKS
LAWTON/REGL    CLOUDY    48  37  65 CALM      30.00F
LAWTON/FT SILL CLOUDY    55  38  52 CALM      29.99F
FREDERICK      CLEAR     54  36  50 SE9       29.97F
CLINTON        CLOUDY    56  33  42 S12       30.00S
HOBART         CLEAR     55  33  43 S14       30.00S
$$

OKZ018>020-024>031-240300-
CENTRAL OKLAHOMA

CITY           SKY/WX    TMP DP  RH WIND       PRES   REMARKS
OKLAHOMA CITY  PTCLDY    52  33  48 S8        29.99F
OKC/WILEY POST CLEAR     54  36  50 S10       29.99F
OKC/TINKER AFB CLEAR     53  34  48 S10       29.99S
STILLWATER     CLEAR     48  34  58 CALM      29.98S
GUTHRIE        CLEAR     55  34  45 S7        29.98S
$$

OKZ008-013-054>072-240300-
NORTHEAST OKLAHOMA

CITY           SKY/WX    TMP DP  RH WIND       PRES   REMARKS
TULSA          PTCLDY    53  32  44 S7        29.98S
TULSA/JONES    CLEAR     49  33  54 SW3       29.99S
PONCA CITY     CLEAR     56  33  42 S6        29.96F
BARTLESVILLE   CLEAR     41  32  70 CALM      29.99S
MUSKOGEE       CLEAR     49  29  46 S7        30.02S
$$

OKZ032-040>043-046>053-073>077-240300-
SOUTH CENTRAL/SOUTHEAST OKLAHOMA

CITY           SKY/WX    TMP DP  RH WIND       PRES   REMARKS
ARDMORE/DWNTWN CLEAR     54  28  37 CALM      30.03S
MCALESTER      PTCLDY    52  30  43 S5        30.03S
$$





USA.gov is the U.S. government's official web portal to all federal, state and local government web resources and services.